Weather History for Hereford, TX

Change the Weather History Date:

Tuesday, May 1, 2012

  Actual Average (KAMA) Record (KAMA)
Temperature  
Mean Temperature 73 °F 61 °F  
Max Temperature 91 °F 75 °F 95 °F (1992)
Min Temperature 55 °F 47 °F 27 °F (1909)
Degree Days  
Heating Degree Days 0 5  
Month to date heating degree days 5  
Since 1 July heating degree days 4093  
Cooling Degree Days 8 1  
Month to date cooling degree days 1  
Year to date cooling degree days 22  
Growing Degree Days 23 (Base 50)    
Moisture  
Dew Point 35 °F    
Average Humidity 37    
Maximum Humidity 88    
Minimum Humidity 8    
Precipitation  
Precipitation 0.00 in 0.05 in 1.49 in (1999)
Month to date precipitation 0.05  
Year to date precipitation 4.12  
Snow  
Snow 0.00 in 0.00 in T in (2011)
Month to date snowfall 0.0  
Since 1 July snowfall 17.6  
Snow Depth -    
Sea Level Pressure  
Sea Level Pressure 29.79 in    
Wind  
Wind Speed 16 mph (SW)    
Max Wind Speed 30 mph    
Max Gust Speed 40 mph    
Visibility 9 miles    
Events      
T = Trace of Precipitation, MM = Missing Value Source: NWS Daily Summary

Daily Weather History Graph

Daily Weather History Graph

Search for Another Location

Airport:

Trip Planner

Search our weather history database for the weather conditions in past years. The results will help you decide how hot, cold, wet, or windy it might be!

Date:

Astronomy

May. 01, 2012 Rise Set
Actual Time 6:58 AM CDT 8:35 PM CDT
Civil Twilight 6:31 AM CDT 9:02 PM CDT
Nautical Twilight 5:58 AM CDT 9:34 PM CDT
Astronomical Twilight 5:24 AM CDT 10:09 PM CDT
Moon 3:51 PM CDT (5/1) 3:44 AM CDT (5/1)
Length of Visible Light 14h 30m
Length of Day
13h 36m
Waxing Gibbous, 74% of the Moon is Illuminated
May 1
Waxing Gibbous
May 5
Full
May 12
Last Quarter
May 20
New
May 28
First Quarter

Hourly Weather History & Observations

Time (CDT) Temp. Dew Point Humidity Pressure Visibility Wind Dir Wind Speed Gust Speed Precip Events Conditions
12:15 AM 68.0 °F 59.0 °F 73% 29.88 in 10.0 mi SSW 18.4 mph 32.2 mph N/A   Clear
12:35 AM 68.0 °F 59.0 °F 73% 29.87 in 10.0 mi South 25.3 mph 31.1 mph N/A   Clear
12:55 AM 66.2 °F 59.0 °F 78% 29.87 in 10.0 mi SSW 19.6 mph 26.5 mph N/A   Clear
1:15 AM 66.2 °F 59.0 °F 78% 29.86 in 10.0 mi SSW 18.4 mph 24.2 mph N/A   Clear
1:35 AM 64.4 °F 59.0 °F 83% 29.86 in 10.0 mi SSW 18.4 mph 24.2 mph N/A   Clear
2:15 AM 64.4 °F 59.0 °F 83% 29.85 in 10.0 mi SSW 15.0 mph 23.0 mph N/A   Clear
2:35 AM 64.4 °F 59.0 °F 83% 29.84 in 10.0 mi South 13.8 mph - N/A   Clear
2:55 AM 62.6 °F 59.0 °F 88% 29.84 in 10.0 mi South 13.8 mph - N/A   Clear
3:15 AM 62.6 °F 59.0 °F 88% 29.83 in 10.0 mi South 15.0 mph - N/A   Clear
3:35 AM 62.6 °F 59.0 °F 88% 29.83 in 10.0 mi South 13.8 mph - N/A   Clear
3:55 AM 62.6 °F 59.0 °F 88% 29.83 in 10.0 mi South 13.8 mph - N/A   Clear
4:15 AM 60.8 °F 57.2 °F 88% 29.83 in 10.0 mi South 12.7 mph - N/A   Clear
4:35 AM 60.8 °F 57.2 °F 88% 29.83 in 7.0 mi South 11.5 mph - N/A   Clear
4:55 AM 60.8 °F 57.2 °F 88% 29.82 in 10.0 mi SSW 9.2 mph - N/A   Clear
5:35 AM 59.0 °F 55.4 °F 88% 29.82 in 10.0 mi SSW 9.2 mph - N/A   Clear
5:55 AM 59.0 °F 53.6 °F 82% 29.82 in 10.0 mi SSW 9.2 mph - N/A   Clear
6:15 AM 57.2 °F 51.8 °F 82% 29.81 in 10.0 mi SSW 8.1 mph - N/A   Clear
6:35 AM 55.4 °F 51.8 °F 88% 29.82 in 10.0 mi SSW 5.8 mph - N/A   Clear
6:55 AM 55.4 °F 50.0 °F 82% 29.83 in 10.0 mi SSW 8.1 mph - N/A   Clear
7:35 AM 55.4 °F 50.0 °F 82% 29.83 in 10.0 mi SSW 10.4 mph - N/A   Clear
7:55 AM 55.4 °F 48.2 °F 77% 29.84 in 10.0 mi SSW 11.5 mph - N/A   Clear
8:15 AM 57.2 °F 46.4 °F 67% 29.84 in 10.0 mi SSW 11.5 mph - N/A   Clear
8:35 AM 59.0 °F 46.4 °F 63% 29.84 in 10.0 mi SSW 11.5 mph 17.3 mph N/A   Clear
9:35 AM 68.0 °F 41.0 °F 37% 29.84 in 10.0 mi SW 11.5 mph - N/A   Clear
9:55 AM 69.8 °F 37.4 °F 31% 29.84 in 10.0 mi SW 13.8 mph - N/A   Clear
10:15 AM 73.4 °F 35.6 °F 25% 29.84 in 10.0 mi WSW 12.7 mph - N/A   Clear
10:35 AM 77.0 °F 33.8 °F 21% 29.84 in 10.0 mi WSW 10.4 mph - N/A   Clear
10:55 AM 78.8 °F 32.0 °F 18% 29.84 in 10.0 mi West 10.4 mph - N/A   Clear
11:15 AM 80.6 °F 32.0 °F 17% 29.83 in 10.0 mi WSW 8.1 mph - N/A   Clear
11:35 AM 84.2 °F 28.4 °F 13% 29.82 in 10.0 mi SW 10.4 mph - N/A   Clear
11:55 AM 86.0 °F 21.2 °F 9% 29.82 in 10.0 mi West 5.8 mph - N/A   Clear
12:15 PM 87.8 °F 21.2 °F 9% 29.82 in 10.0 mi West 16.1 mph 23.0 mph N/A   Clear
12:35 PM 89.6 °F 21.2 °F 8% 29.81 in 10.0 mi West 20.7 mph 28.8 mph N/A   Clear
12:55 PM 89.6 °F 21.2 °F 8% 29.80 in 10.0 mi West 24.2 mph 28.8 mph N/A   Clear
1:15 PM 89.6 °F 21.2 °F 8% 29.79 in 10.0 mi WSW 16.1 mph 26.5 mph N/A   Clear
1:35 PM 89.6 °F 21.2 °F 8% 29.79 in 10.0 mi WSW 24.2 mph 32.2 mph N/A   Clear
1:55 PM 91.4 °F 21.2 °F 8% 29.78 in 10.0 mi WSW 23.0 mph 32.2 mph N/A   Clear
2:15 PM 91.4 °F 23.0 °F 8% 29.78 in 10.0 mi WSW 27.6 mph 35.7 mph N/A   Clear
2:35 PM 91.4 °F 21.2 °F 8% 29.77 in 10.0 mi WSW 26.5 mph 36.8 mph N/A   Clear
3:15 PM 91.4 °F 23.0 °F 8% 29.76 in 10.0 mi WSW 25.3 mph 33.4 mph N/A   Clear
3:35 PM 91.4 °F 23.0 °F 8% 29.76 in 10.0 mi WSW 23.0 mph 31.1 mph N/A   Clear
3:55 PM 91.4 °F 23.0 °F 8% 29.75 in 10.0 mi West 25.3 mph 40.3 mph N/A   Clear
4:15 PM 91.4 °F 23.0 °F 8% 29.73 in 10.0 mi SW 23.0 mph 32.2 mph N/A   Clear
4:35 PM 91.4 °F 23.0 °F 8% 29.73 in 10.0 mi WSW 20.7 mph 34.5 mph N/A   Clear
4:55 PM 91.4 °F 21.2 °F 8% 29.73 in 10.0 mi West 27.6 mph 38.0 mph N/A   Clear
5:15 PM 91.4 °F 23.0 °F 8% 29.71 in 10.0 mi SW 25.3 mph 31.1 mph N/A   Clear
5:35 PM 91.4 °F 21.2 °F 8% 29.71 in 10.0 mi WSW 29.9 mph 36.8 mph N/A   Clear
5:55 PM 91.4 °F 21.2 °F 8% 29.71 in 10.0 mi SW 26.5 mph 32.2 mph N/A   Clear
6:15 PM 91.4 °F 21.2 °F 8% 29.71 in 10.0 mi WSW 23.0 mph 32.2 mph N/A   Clear
6:35 PM 91.4 °F 23.0 °F 8% 29.71 in 10.0 mi WSW 19.6 mph 32.2 mph N/A   Clear
6:55 PM 89.6 °F 23.0 °F 9% 29.71 in 10.0 mi SW 19.6 mph 25.3 mph N/A   Clear
7:15 PM 89.6 °F 23.0 °F 9% 29.71 in 10.0 mi SW 16.1 mph 26.5 mph N/A   Clear
7:35 PM 89.6 °F 24.8 °F 10% 29.71 in 10.0 mi SW 17.3 mph 25.3 mph N/A   Clear
7:55 PM 87.8 °F 23.0 °F 9% 29.71 in 10.0 mi WSW 13.8 mph - N/A   Clear
8:15 PM 86.0 °F 26.6 °F 12% 29.71 in 10.0 mi WSW 9.2 mph - N/A   Clear
8:35 PM 80.6 °F 23.0 °F 12% 29.72 in 4.0 mi WSW 9.2 mph - N/A   Haze
8:55 PM 78.8 °F 21.2 °F 12% 29.73 in 3.0 mi WSW 8.1 mph - N/A   Haze
9:15 PM 75.2 °F 23.0 °F 14% 29.74 in 1.8 mi SW 6.9 mph - N/A   Haze
9:35 PM 73.4 °F 23.0 °F 15% 29.74 in 1.5 mi WSW 6.9 mph - N/A   Haze
9:55 PM 73.4 °F 23.0 °F 15% 29.75 in 1.2 mi WSW 6.9 mph - N/A   Haze
10:15 PM 69.8 °F 21.2 °F 16% 29.75 in 2.5 mi SSW 4.6 mph - N/A   Haze
10:35 PM 64.4 °F 26.6 °F 24% 29.76 in 7.0 mi SSW 8.1 mph - N/A   Clear
10:55 PM 62.6 °F 26.6 °F 26% 29.76 in 4.0 mi SSW 10.4 mph - N/A   Haze
11:15 PM 66.2 °F 26.6 °F 23% 29.76 in 5.0 mi SSW 8.1 mph - N/A   Haze
11:35 PM 64.4 °F 26.6 °F 24% 29.76 in 10.0 mi SW 6.9 mph - N/A   Clear
11:55 PM 64.4 °F 28.4 °F 26% 29.76 in 10.0 mi SSW 9.2 mph - N/A   Clear